Weather History for Evergreen, AL

Change the Weather History Date:

Saturday, December 8, 2012

  Actual Average (KPRN) Record (KPRN)
Temperature  
Mean Temperature 66 °F -  
Max Temperature 75 °F 65 °F 86 °F (1951)
Min Temperature 57 °F 40 °F 21 °F (1977)
Cooling Degree Days 1    
Growing Degree Days 16 (Base 50)    
Moisture  
Dew Point 59 °F    
Average Humidity 83    
Maximum Humidity 94    
Minimum Humidity 54    
Precipitation  
Precipitation 0.01 in - - ()
Sea Level Pressure  
Sea Level Pressure 30.00 in    
Wind  
Wind Speed 5 mph (SE)    
Max Wind Speed 10 mph    
Max Gust Speed -    
Visibility 8 miles    
Events Rain    
Averages and records for this station are not official NWS values.
T = Trace of Precipitation, MM = Missing Value Source: NWS Daily Summary

Daily Weather History Graph

Daily Weather History Graph

Search for Another Location

Airport:

Trip Planner

Search our weather history database for the weather conditions in past years. The results will help you decide how hot, cold, wet, or windy it might be!

Date:

Astronomy

Dec. 08, 2012 Rise Set
Actual Time 6:35 AM CST 4:45 PM CST
Civil Twilight 6:08 AM CST 5:11 PM CST
Nautical Twilight 5:38 AM CST 5:42 PM CST
Astronomical Twilight 5:08 AM CST 6:11 PM CST
Moon 1:15 AM CST (12/8) 1:00 PM CST (12/8)
Length of Visible Light 11h 03m
Length of Day
10h 09m
Waning Crescent, 28% of the Moon is Illuminated
Dec 8
Waning Crescent
Dec 13
New
Dec 19
First Quarter
Dec 28
Full
Jan 4
Last Quarter

Hourly Weather History & Observations

Time (CST) Temp. Dew Point Humidity Pressure Visibility Wind Dir Wind Speed Gust Speed Precip Events Conditions
12:14 AM 62.6 °F 59.0 °F 88% 30.00 in 9.0 mi SE 4.6 mph - N/A   Overcast
12:53 AM 63.0 °F 59.0 °F 87% 29.99 in 9.0 mi ESE 5.8 mph - N/A   Overcast
1:18 AM 62.6 °F 59.0 °F 88% 29.99 in 9.0 mi ESE 5.8 mph - N/A   Overcast
1:53 AM 62.1 °F 59.0 °F 90% 29.98 in 10.0 mi ESE 5.8 mph - N/A   Overcast
2:05 AM 62.6 °F 59.0 °F 88% 29.99 in 10.0 mi ESE 5.8 mph - N/A   Overcast
2:53 AM 62.1 °F 59.0 °F 90% 29.98 in 7.0 mi SE 3.5 mph - N/A   Overcast
3:02 AM 62.6 °F 59.0 °F 88% 29.99 in 7.0 mi SE 3.5 mph - N/A   Overcast
3:53 AM 62.1 °F 59.0 °F 90% 29.98 in 8.0 mi ESE 5.8 mph - N/A   Overcast
5:08 AM 60.8 °F 57.2 °F 88% 29.99 in 7.0 mi East 3.5 mph - N/A   Mostly Cloudy
5:53 AM 59.0 °F 57.0 °F 93% 29.99 in 6.0 mi SE 3.5 mph - N/A   Mostly Cloudy
6:07 AM 59.0 °F 57.2 °F 94% 30.00 in 6.0 mi SE 3.5 mph - N/A   Mostly Cloudy
6:22 AM 59.0 °F 57.2 °F 94% 30.01 in 6.0 mi ESE 3.5 mph - N/A   Overcast
6:53 AM 59.0 °F 57.0 °F 93% 30.01 in 4.0 mi Calm Calm - 0.00 in   Overcast
7:24 AM 60.8 °F 57.2 °F 88% 30.02 in 6.0 mi ESE 6.9 mph - N/A   Overcast
7:53 AM 60.1 °F 57.9 °F 93% 30.02 in 5.0 mi SE 4.6 mph - N/A   Overcast
8:22 AM 60.8 °F 57.2 °F 88% 30.04 in 4.0 mi Calm Calm - 0.01 in Rain Light Rain
8:33 AM 60.8 °F 59.0 °F 94% 30.04 in 2.5 mi Calm Calm - 0.01 in Rain Light Rain
8:42 AM 60.8 °F 59.0 °F 94% 30.04 in 4.0 mi East 3.5 mph - 0.01 in Rain Light Rain
8:53 AM 62.1 °F 59.0 °F 90% 30.04 in 4.0 mi East 3.5 mph - 0.01 in   Overcast
9:00 AM 62.6 °F 59.0 °F 88% 30.04 in 5.0 mi ESE 4.6 mph - N/A   Overcast
9:10 AM 62.6 °F 59.0 °F 88% 30.04 in 5.0 mi SE 4.6 mph - N/A   Overcast
9:48 AM 66.2 °F 62.6 °F 88% 30.04 in 10.0 mi SE 8.1 mph - N/A   Mostly Cloudy
9:53 AM 66.9 °F 62.1 °F 84% 30.03 in 10.0 mi SE 5.8 mph - N/A   Mostly Cloudy
9:59 AM 68.0 °F 62.6 °F 83% 30.03 in 10.0 mi ESE 6.9 mph - N/A   Scattered Clouds
10:31 AM 69.8 °F 62.6 °F 78% 30.02 in 10.0 mi SSE 8.1 mph - N/A   Mostly Cloudy
10:49 AM 71.6 °F 62.6 °F 73% 30.02 in 10.0 mi South 9.2 mph - N/A   Overcast
10:53 AM 71.1 °F 63.0 °F 75% 30.01 in 10.0 mi SSE 10.4 mph - N/A   Overcast
11:53 AM 72.0 °F 62.1 °F 71% 29.99 in 10.0 mi Variable 5.8 mph - N/A   Overcast
12:24 PM 71.6 °F 62.6 °F 73% 29.98 in 10.0 mi SSE 5.8 mph - N/A   Mostly Cloudy
12:34 PM 73.4 °F 62.6 °F 69% 29.98 in 10.0 mi SSW 9.2 mph - N/A   Mostly Cloudy
12:44 PM 73.4 °F 62.6 °F 69% 29.98 in 10.0 mi South 6.9 mph - N/A   Scattered Clouds
12:53 PM 72.0 °F 61.0 °F 68% 29.97 in 10.0 mi SSW 6.9 mph - N/A   Scattered Clouds
1:53 PM 75.0 °F 59.0 °F 57% 29.95 in 10.0 mi South 9.2 mph - N/A   Partly Cloudy
2:53 PM 75.9 °F 57.9 °F 54% 29.95 in 10.0 mi South 6.9 mph - N/A   Scattered Clouds
3:53 PM 75.0 °F 57.9 °F 55% 29.94 in 10.0 mi South 6.9 mph - N/A   Clear
4:53 PM 69.1 °F 57.9 °F 68% 29.96 in 10.0 mi South 3.5 mph - 0.00 in   Clear
5:53 PM 64.0 °F 59.0 °F 84% 29.98 in 10.0 mi Calm Calm - N/A   Scattered Clouds
6:53 PM 63.0 °F 59.0 °F 87% 30.00 in 10.0 mi Calm Calm - N/A   Partly Cloudy
7:53 PM 59.0 °F 55.9 °F 90% 30.01 in 10.0 mi Calm Calm - N/A   Clear
8:53 PM 60.1 °F 57.0 °F 90% 30.02 in 10.0 mi Calm Calm - N/A   Overcast
9:53 PM 60.1 °F 57.0 °F 90% 30.03 in 10.0 mi Calm Calm - N/A   Mostly Cloudy
10:53 PM 57.9 °F 55.9 °F 93% 30.03 in 10.0 mi SE 3.5 mph - N/A   Partly Cloudy
11:53 PM 57.9 °F 55.0 °F 90% 30.02 in 7.0 mi Calm Calm - N/A   Overcast